sat.trackr.live / text

‹ back to catalog

STARLINK-34357

NORAD 64310 · 2025-123V

PAYLOAD ACTIVE UNKNOWN

§ Identity

Operator
Country
US
Launch date
2025-06-08
Launch site
AFWTR
Launch vehicle
Mass (kg)
RCS (m²)

Purposes: comms

External: N2YO · Heavens-Above · Gunter

§ Orbital elements

Epoch: 2026-09-20T13:46:41.435616Z

Period
94.09 min
Inclination
70.0008°
Eccentricity
0.0003349
Mean motion
15.30415870 rev/d
Perigee alt
472.3 km
Apogee alt
476.9 km
Semi-major
6,852.7 km
B*
3.5546e-4
RAAN
60.9634°
Arg perigee
280.0340°
Mean anomaly
80.0458°
Rev number
7,086

§ Raw data

STARLINK-343571 64310U 25123V   26263.57409069  .00010370  00000+0  35546-3 0  99922 64310  70.0008  60.9634 0003349 280.0340  80.0458 15.30415870 70865

JSON: /api/v1/satellites/64310 · /tle

For live sub-satellite position, see the globe view (requires WebGL).

§ Visibility from observer

Set your observer location to see the next 7 days of passes ≥ 10°. The values pass through the URL so the page stays shareable.

No JS? Fill the form by hand. The geolocation button needs JavaScript.